Meteo pe oră la Abergavenny

Astăzi, 27 Iulie, Marţi

Timp Temperatura Precipitaţii Vânt Presiune Umiditate
00:00 +16°C° 0.1 mm 2 m/s 741 mmHg 88%
01:00 +16°C° 0 mm 2 m/s 741 mmHg 87%
02:00 +15°C° 0 mm 2 m/s 741 mmHg 86%
03:00 +15°C° 0 mm 1 m/s 740 mmHg 85%
04:00 +15°C° 0.1 mm 1 m/s 740 mmHg 88%
05:00 +15°C° 0.1 mm 2 m/s 740 mmHg 90%
06:00 +15°C° 0.1 mm 2 m/s 740 mmHg 93%
07:00 +15°C° 0.5 mm 2 m/s 740 mmHg 93%
08:00 +16°C° 0.5 mm 2 m/s 740 mmHg 92%
09:00 +16°C° 0.5 mm 2 m/s 740 mmHg 92%
10:00 +16°C° 0.6 mm 3 m/s 740 mmHg 91%
11:00 +17°C° 0.6 mm 3 m/s 740 mmHg 90%
12:00 +17°C° 0.6 mm 3 m/s 739 mmHg 88%
13:00 +17°C° 0.8 mm 3 m/s 739 mmHg 88%
14:00 +18°C° 0.8 mm 3 m/s 739 mmHg 87%
15:00 +18°C° 0.8 mm 3 m/s 739 mmHg 87%
16:00 +18°C° 0.3 mm 4 m/s 739 mmHg 86%
17:00 +18°C° 0.3 mm 4 m/s 739 mmHg 86%
18:00 +18°C° 0.3 mm 4 m/s 739 mmHg 86%
19:00 +15°C° 0 mm 4 m/s 739 mmHg 88%
20:00 +14°C° 0 mm 3 m/s 739 mmHg 91%
21:00 +14°C° 0 mm 2 m/s 739 mmHg 94%
22:00 +14°C° 0 mm 2 m/s 739 mmHg 94%
23:00 +13°C° 0 mm 3 m/s 739 mmHg 94%

Mâine, 28 Iulie, Miercuri

Timp Temperatura Precipitaţii Vânt Presiune Umiditate
00:00 +12°C° 0 mm 3 m/s 739 mmHg 94%
01:00 +12°C° 0 mm 3 m/s 739 mmHg 94%
02:00 +12°C° 0 mm 3 m/s 739 mmHg 95%
03:00 +11°C° 0 mm 3 m/s 739 mmHg 95%
04:00 +13°C° 0 mm 2 m/s 739 mmHg 94%
05:00 +13°C° 0 mm 2 m/s 739 mmHg 93%
06:00 +13°C° 0 mm 2 m/s 739 mmHg 92%
07:00 +13°C° 0.1 mm 3 m/s 739 mmHg 88%
08:00 +14°C° 0.1 mm 4 m/s 739 mmHg 83%
09:00 +15°C° 0.1 mm 5 m/s 739 mmHg 78%
10:00 +16°C° 0.6 mm 6 m/s 738 mmHg 76%
11:00 +16°C° 0.6 mm 7 m/s 738 mmHg 74%
12:00 +17°C° 0.6 mm 8 m/s 738 mmHg 73%
13:00 +17°C° 0.2 mm 9 m/s 738 mmHg 69%
14:00 +17°C° 0.2 mm 9 m/s 738 mmHg 66%
15:00 +17°C° 0.2 mm 9 m/s 738 mmHg 62%
16:00 +16°C° 0.1 mm 8 m/s 738 mmHg 67%
17:00 +15°C° 0.1 mm 8 m/s 738 mmHg 71%
18:00 +14°C° 0.1 mm 7 m/s 738 mmHg 75%
19:00 +12°C° 0.1 mm 7 m/s 738 mmHg 78%
20:00 +11°C° 0.1 mm 6 m/s 739 mmHg 81%
21:00 +10°C° 0.1 mm 6 m/s 739 mmHg 84%
22:00 +9°C° 0 mm 5 m/s 739 mmHg 86%
23:00 +9°C° 0 mm 5 m/s 739 mmHg 88%

Poimâine, 29 Iulie, Joi

Timp Temperatura Precipitaţii Vânt Presiune Umiditate
00:00 +10°C° 0 mm 4 m/s 739 mmHg 90%
01:00 +9°C° 0 mm 5 m/s 739 mmHg 90%
02:00 +9°C° 0 mm 5 m/s 739 mmHg 89%
03:00 +9°C° 0 mm 5 m/s 739 mmHg 88%
04:00 +10°C° 0 mm 5 m/s 739 mmHg 88%
05:00 +10°C° 0 mm 6 m/s 739 mmHg 87%
06:00 +11°C° 0 mm 6 m/s 739 mmHg 87%
07:00 +11°C° 0.1 mm 7 m/s 740 mmHg 86%
08:00 +12°C° 0.1 mm 8 m/s 740 mmHg 85%
09:00 +12°C° 0.1 mm 9 m/s 740 mmHg 84%
10:00 +12°C° 0 mm 8 m/s 740 mmHg 84%
11:00 +13°C° 0 mm 8 m/s 741 mmHg 84%
12:00 +14°C° 0 mm 7 m/s 741 mmHg 84%
13:00 +15°C° 0.1 mm 7 m/s 741 mmHg 81%
14:00 +16°C° 0.1 mm 7 m/s 741 mmHg 78%
15:00 +17°C° 0.1 mm 7 m/s 741 mmHg 76%
16:00 +16°C° 0.2 mm 7 m/s 741 mmHg 79%
17:00 +16°C° 0.2 mm 6 m/s 741 mmHg 82%
18:00 +15°C° 0.2 mm 6 m/s 742 mmHg 85%
19:00 +14°C° 0 mm 5 m/s 742 mmHg 88%
20:00 +14°C° 0 mm 4 m/s 742 mmHg 90%
21:00 +13°C° 0 mm 3 m/s 742 mmHg 93%
22:00 +12°C° 0 mm 3 m/s 742 mmHg 93%
23:00 +13°C° 0 mm 2 m/s 742 mmHg 94%

30 Iulie, Vineri

Timp Temperatura Precipitaţii Vânt Presiune Umiditate
00:00 +12°C° 0 mm 2 m/s 742 mmHg 94%
01:00 +12°C° 0 mm 2 m/s 742 mmHg 94%
02:00 +12°C° 0 mm 2 m/s 742 mmHg 94%
03:00 +12°C° 0 mm 1 m/s 742 mmHg 94%
04:00 +12°C° 0 mm 1 m/s 742 mmHg 93%
05:00 +12°C° 0 mm 1 m/s 742 mmHg 92%
06:00 +13°C° 0 mm 1 m/s 742 mmHg 91%
07:00 +14°C° 0 mm 2 m/s 742 mmHg 84%
08:00 +16°C° 0 mm 2 m/s 743 mmHg 77%
09:00 +17°C° 0 mm 3 m/s 743 mmHg 70%
10:00 +18°C° 0 mm 3 m/s 743 mmHg 67%
11:00 +19°C° 0 mm 3 m/s 743 mmHg 63%
12:00 +20°C° 0 mm 4 m/s 742 mmHg 59%
13:00 +20°C° 0 mm 3 m/s 742 mmHg 59%
14:00 +20°C° 0 mm 3 m/s 742 mmHg 59%
15:00 +20°C° 0 mm 3 m/s 742 mmHg 59%
16:00 +20°C° 0 mm 3 m/s 742 mmHg 63%
17:00 +19°C° 0 mm 3 m/s 742 mmHg 66%
18:00 +19°C° 0 mm 2 m/s 742 mmHg 70%
19:00 +17°C° 0 mm 2 m/s 742 mmHg 76%
20:00 +15°C° 0 mm 2 m/s 742 mmHg 82%
21:00 +13°C° 0 mm 1 m/s 742 mmHg 88%
22:00 +13°C° 0 mm 1 m/s 742 mmHg 88%
23:00 +12°C° 0 mm 1 m/s 742 mmHg 88%

31 Iulie, Sâmbătă

Timp Temperatura Precipitaţii Vânt Presiune Umiditate
00:00 +12°C° 0 mm 1 m/s 742 mmHg 88%
01:00 +12°C° 0 mm 1 m/s 742 mmHg 88%
02:00 +12°C° 0 mm 1 m/s 742 mmHg 89%
03:00 +11°C° 0 mm 1 m/s 742 mmHg 89%
04:00 +12°C° 0 mm 1 m/s 742 mmHg 88%
05:00 +13°C° 0 mm 1 m/s 742 mmHg 86%
06:00 +13°C° 0 mm 1 m/s 742 mmHg 85%
07:00 +14°C° 0 mm 1 m/s 742 mmHg 82%
08:00 +15°C° 0 mm 1 m/s 742 mmHg 79%
09:00 +16°C° 0 mm 1 m/s 742 mmHg 77%
10:00 +18°C° 0.1 mm 1 m/s 742 mmHg 74%
11:00 +19°C° 0.1 mm 2 m/s 742 mmHg 72%
12:00 +20°C° 0.1 mm 2 m/s 742 mmHg 69%
13:00 +20°C° 0.1 mm 3 m/s 742 mmHg 68%
14:00 +20°C° 0.1 mm 4 m/s 742 mmHg 67%
15:00 +20°C° 0.1 mm 5 m/s 742 mmHg 66%
16:00 +19°C° 0 mm 4 m/s 742 mmHg 67%
17:00 +18°C° 0 mm 4 m/s 743 mmHg 68%
18:00 +18°C° 0 mm 4 m/s 743 mmHg 70%
19:00 +16°C° 0 mm 3 m/s 743 mmHg 75%
20:00 +13°C° 0 mm 3 m/s 743 mmHg 81%
21:00 +12°C° 0 mm 2 m/s 743 mmHg 87%
22:00 +12°C° 0 mm 2 m/s 743 mmHg 88%
23:00 +10°C° 0 mm 2 m/s 743 mmHg 89%

1 August, Duminică

Timp Temperatura Precipitaţii Vânt Presiune Umiditate
00:00 +10°C° 0 mm 2 m/s 743 mmHg 90%
01:00 +9°C° 0 mm 2 m/s 743 mmHg 91%
02:00 +9°C° 0 mm 2 m/s 743 mmHg 92%
03:00 +9°C° 0 mm 2 m/s 743 mmHg 93%
04:00 +9°C° 0 mm 2 m/s 744 mmHg 92%
05:00 +11°C° 0 mm 1 m/s 744 mmHg 92%
06:00 +11°C° 0 mm 1 m/s 744 mmHg 91%
07:00 +13°C° 0 mm 2 m/s 744 mmHg 83%
08:00 +15°C° 0 mm 2 m/s 744 mmHg 75%
09:00 +16°C° 0 mm 2 m/s 744 mmHg 67%
10:00 +17°C° 0 mm 2 m/s 744 mmHg 63%
11:00 +18°C° 0 mm 2 m/s 745 mmHg 60%
12:00 +19°C° 0 mm 3 m/s 745 mmHg 56%
13:00 +19°C° 0 mm 3 m/s 745 mmHg 58%
14:00 +19°C° 0 mm 3 m/s 745 mmHg 61%
15:00 +19°C° 0 mm 4 m/s 745 mmHg 63%
16:00 +19°C° 0 mm 4 m/s 745 mmHg 66%
17:00 +18°C° 0 mm 4 m/s 745 mmHg 69%
18:00 +18°C° 0 mm 4 m/s 745 mmHg 72%
19:00 +16°C° 0 mm 3 m/s 745 mmHg 77%
20:00 +13°C° 0 mm 3 m/s 745 mmHg 83%
21:00 +13°C° 0 mm 2 m/s 746 mmHg 89%
22:00 +12°C° 0 mm 2 m/s 746 mmHg 88%
23:00 +12°C° 0 mm 2 m/s 746 mmHg 88%
Arată mai mult

Formular de consimțământ

Meteoprog și furnizorii noștri de servicii pot stoca și accesa date personale, precum cookies, identificatori de dispozitiv sau alte tehnologii similare pe dispozitivul dumneavoastră și procesa astfel de date pentru a personaliza conținutul și reclamele, dar și pentru a oferi caracteristici de social media și pentru a analiza traficul.

  • Stocarea și/sau accesarea informațiilor pe dispozitivul dumneavoastră

    Cookies, identificatori de dispozitiv sau alte informații pot fi stocate sau accesate pe dispozitiv în scopurile indicate mai sus.

  • Reclame și conținut personalizat, evaluarea reclamelor și a conținutului, informații despre audiențe și dezvoltarea produselor

    Reclamele și conținutul pot fi personalizate pe baza unui profil. Pot fi adăugate date suplimentare pentru a personaliza mai bine reclamele și conținutul. Performanța reclamelor și conținutului poate fi măsurată. Pot fi obținute informații despre utilizatorii care au văzut reclamele și conținutul. Aceste date pot fi utilizate pentru a dezvolta sau îmbunătăți experiența utilizatorilor, sistemele și software-ul.

Dând clic pe ‘Sunt de acord’, permiteți utilizarea cookie-urilor menționate, a identificatorilor de dispozitiv, balizelor web sau altor tehnologii similare. Setările pot fi modificate din browser-ul dispozitivului dumneavoastră.

În anumite scopuri, interesele legitime pot prima asupra consimțământului. Puteți citi mai multe informații în acest sens în Politica privind Confidențialitatea Datelor și Cookie.